Regional Weather Roundup
Issued by NWS

Home | Current Version | Previous Version | Text Only | Print | Product List | Glossary On
Versions: 1 2 3 4 5 6 7 8 9 10 11 12 13 14 15 16 17 18 19 20 21 22 23 24 25 26 27 28 29 30 31 32 33 34 35 36 37 38 39 40 41 42 43 44 45 46 47 48 49 50
000
ASUS43 KMPX 181110
RWRMN
WEATHER ROUNDUP FOR MINNESOTA
NATIONAL WEATHER SERVICE TWIN CITIES/CHANHASSEN MN
500 AM CST THU DEC 18 2014


NOTE: "FAIR" INDICATES FEW OR NO CLOUDS BELOW 12,000 FEET WITH NO
SIGNIFICANT WEATHER AND/OR OBSTRUCTIONS TO VISIBILITY. N/A MEANS
CURRENT SKY AND/OR WEATHER CONDITIONS ARE NOT AVAILABLE.

MNZ060>063-068>070-181200-
   Twin Cities Metro

CITY           SKY/WX    TMP DP  RH WIND       PRES   REMARKS
TWIN CITIES    PTCLDY    12   8  84 N5        30.30F WCI   4
ST PAUL        CLOUDY    16  11  80 NW3       30.32F
CRYSTAL        CLOUDY    13   9  84 CALM      30.30F
BLAINE         LGT SNOW  16  16 100 CALM      30.30F
LAKEVILLE      PTCLDY     9   7  92 CALM      30.29F
EDEN PRAIRIE   PTCLDY    11   7  84 NE3       30.29F
SOUTH ST PAUL  CLOUDY    15  12  86 CALM      30.30F
LAKE ELMO      CLOUDY    19  16  86 CALM      30.31F
$$
MNZ001>005-007-008-013>017-022>024-027-028-181200-
   Northwest Minnesota

CITY           SKY/WX    TMP DP  RH WIND       PRES   REMARKS
BEMIDJI        PTCLDY     2  -2  84 CALM      30.25F
HALLOCK        PTCLDY     7   3  85 SE6       30.27F WCI  -3
ROSEAU         MOCLDY     7   1  78 CALM      30.28S
WARROAD        MOCLDY     5   1  85 CALM      30.28F
THIEF RVR FALL PTCLDY     9   9 100 SE5       30.26F WCI   0
CROOKSTON      PTCLDY     7   3  85 S5        30.28F WCI  -2
FOSSTON        PTCLDY     3   1  92 CALM      30.26S
DETROIT LAKES  PTCLDY    10   9  92 SE5       30.25F WCI   2
MOORHEAD       FAIR       7   5  92 CALM      30.28S
PARK RAPIDS    PTCLDY     5   1  83 CALM      30.24F
MAHNOMEN       FAIR       8   5  88 SE6       30.25F WCI  -2
$$
MNZ006-009>011-018-025>026-181200-
   North Central Minnesota

CITY           SKY/WX    TMP DP  RH WIND       PRES   REMARKS
BAUDETTE       MOCLDY     5   0  79 CALM      30.28F
FLAG ISLAND    MOCLDY     7   3  85 E3        30.28F
INTL FALLS     PTCLDY     3  -1  83 E6        30.29F WCI  -8
WASKISH        PTCLDY     1  -2  85 CALM      30.27F
BIG FORK       PTCLDY     0  -6  78 CALM      30.28F
LONGVILLE      PTCLDY    -2  -6  84 CALM      30.27F
GRAND RAPIDS   PTCLDY     1  -2  85 CALM      30.26F
CRANE LAKE     FLURRIES  -2  -6  84 CALM      30.35F
ORR            CLOUDY     9   3  78 CALM      30.27S
COOK           FLURRIES   9   7  92 CALM      30.29F
WALKER         FAIR       1  -2  86 CALM      30.25F
$$
MNZ012-019>021-037-181200-
   Northeast Minnesota

CITY           SKY/WX    TMP DP  RH WIND       PRES   REMARKS
DULUTH         FLURRIES  18  13  80 N6        30.27F WCI  10
ELY            FLURRIES   3   0  85 CALM      30.29F
HIBBING        CLOUDY    14   9  80 CALM      30.28F
EVELETH        FLURRIES  12  10  92 CALM      30.30S
DULUTH HARBOR  CLOUDY    23  19  86 CALM      30.33F
TWO HARBORS    CLOUDY    25  19  80 CALM      30.28S
SILVER BAY       N/A     21  18  86 CALM      30.28S
GRAND MARAIS     N/A     11  -2  56 N7        30.35F WCI   0
G MARAIS ARPRT MOCLDY    -2  -9  71 N5        30.26F WCI -12
$$
MNZ029>031-032-039>041-046>048-054>057-064-181200-
   West Central Minnesota

CITY           SKY/WX    TMP DP  RH WIND       PRES   REMARKS
FERGUS FALLS   PTCLDY    10   5  79 SE7       30.30S WCI   0
WHEATON        PTCLDY     0  -2  92 SE5       30.28F WCI -10
MORRIS         PTCLDY     7   3  85 SE5       30.26S WCI  -2
ALEXANDRIA     PTCLDY     9   6  88 SE6       30.25F WCI  -1
ELBOW LAKE     FAIR       8   6  90 SE5       30.26S WCI   0
WADENA         MOCLDY     1   0  92 CALM      30.25S
GLENWOOD       PTCLDY     7   5  92 E3        30.26F
APPLETON       PTCLDY     3   1  92 CALM      30.27F
BENSON         PTCLDY     7   3  85 CALM      30.27F
ORTONVILLE     PTCLDY     7   3  85 CALM      30.25F
MADISON        PTCLDY     9   7  92 CALM      30.27F
WILLMAR        FAIR      10   7  85 E3        30.28S
$$
MNZ033>034-036-042>043-049>051-058-059-181200-
   Central Minnesota

CITY           SKY/WX    TMP DP  RH WIND       PRES   REMARKS
ST CLOUD       MOCLDY    11   5  77 CALM      30.29F
SAUK CENTRE    FAIR       5   2  89 CALM      30.28S
PAYNESVILLE    PTCLDY     4   3  94 CALM      30.28F
AITKIN         MOCLDY     3  -2  78 CALM      30.28S
PINE RIVER     PTCLDY     1  -2  85 CALM      30.30F
BRAINERD       PTCLDY     0  -4  83 CALM      30.29F
STAPLES        MOCLDY     3   0  85 CALM      30.26F
LONG PRAIRIE   FAIR       5   3  92 CALM      30.27S
LITTLE FALLS   MOCLDY     5   1  85 CALM      30.29F
LITCHFIELD     PTCLDY    10  10 100 CALM      30.28F
BUFFALO        MOCLDY    10   7  89 CALM      30.31F
MAPLE LAKE     MOCLDY    10   8  92 CALM      30.30F
$$
MNZ037-044-045-052-053-181200-
   East Central Minnesota

CITY           SKY/WX    TMP DP  RH WIND       PRES   REMARKS
PRINCETON      FLURRIES  12  10  92 CALM      30.29F
MORA           CLOUDY    16  12  86 CALM      30.32F
CAMBRIDGE      FLURRIES  18  10  73 CALM      30.29F
RUSH CITY      CLOUDY    18  15  87 CALM      30.31F
MOOSE LAKE     CLOUDY    18  14  86 CALM      30.28F
HINCKLEY       CLOUDY    18  16  93 CALM      30.30F
CLOQUET        CLOUDY    18  14  86 CALM      30.28F
MCGREGOR       CLOUDY     9   7  92 CALM      30.29F
$$
MNZ071>073-080-081-089-090-097-098-181200-
   Southwest Minnesota

CITY           SKY/WX    TMP DP  RH WIND       PRES   REMARKS
MONTEVIDEO     PTCLDY     3   0  85 CALM      30.28F
GRANITE FALLS  PTCLDY     4   1  88 CALM      30.29F
CANBY          PTCLDY     4   2  91 CALM      30.26F
MARSHALL       MOCLDY     3  -2  78 CALM      30.24F
REDWOOD FALLS  PTCLDY     7   3  84 CALM      30.28F
OLIVIA         PTCLDY    10   9  92 CALM      30.28S
PIPESTONE      CLOUDY    16  12  86 CALM      30.19F
WINDOM           N/A      9   7  92 CALM      30.23F
WORTHINGTON    CLOUDY    12  10  92 SE3       30.22S
JACKSON        MOCLDY    12  10  92 CALM      30.23F
TRACY          PTCLDY     9   7  90 CALM      30.24F
SLAYTON        CLOUDY    11  10  97 CALM      30.22F
$$
MNZ065>067-074>077-082>085-091>093-181200-
   South Central Minnesota

CITY           SKY/WX    TMP DP  RH WIND       PRES   REMARKS
MANKATO        MOCLDY    14   7  73 E5        30.27F WCI   6
NEW ULM        CLOUDY    16  14  93 CALM      30.28S
ST JAMES       MOCLDY    12  10  92 CALM      30.27F
FAIRMONT       CLOUDY    10   7  85 CALM      30.25S
GLENCOE        PTCLDY    11   9  92 CALM      30.29S
FARIBAULT      MOCLDY     9   7  92 CALM      30.28F
OWATONNA       MOCLDY     9   7  92 CALM      30.26F
WASECA         PTCLDY    12  10  92 NE3       30.28F
ALBERT LEA     MOCLDY    12  10  92 CALM      30.25F
$$
MNZ078>079-086>088-094>096-181200-
   Southeast Minnesota

CITY           SKY/WX    TMP DP  RH WIND       PRES   REMARKS
ROCHESTER      PTCLDY    13   9  84 N3        30.26F
RED WING       FLURRIES  16  12  86 CALM      30.29F
STANTON        PTCLDY     9   6  86 SW3       30.29S
DODGE CENTER   PTCLDY    10  10 100 CALM      30.25F
WINONA         CLOUDY    19  16  86 NW3       30.30F
AUSTIN         PTCLDY    12  10  92 CALM      30.25F
PRESTON        PTCLDY    12  10  90 CALM      30.26F
$$
ABBREVIATIONS USED IN REMARKS
   TC - TEMPERATURES IN CELSIUS
  WCI - WIND CHILL INDEX
   HX - HEAT INDEX
  VSB - VISIBILITY
$$


USA.gov is the U.S. government's official web portal to all federal, state and local government web resources and services.